Погода в Калининграде

Погода в Калининграде : погода сейчас, прогноз погоды и архив. Всё, что Вы хотите узнать о погоде в Калининграде!

Хотите узнать прогноз погоды в Калининграде? Тогда Вам сюда: Погода в Калининграде

Поиск расширенной информации на нашем сайте:

Другие новости

Новости СМИ2

Главная страница сайта

Новости сайта

03.07.2017

Напоминаем, что на нашем специализированном сайте Метеоцентр.Азия вы можете получить высокодетализированные автоматические прогнозы погоды по пунктам России, СНГ и мира в авиационном формате (включающие направление и скорость ветра, видимость, явления погоды, количество и форму облачности, нижнюю и верхнюю границу облачности).

Рекомендуем: Стоимость услуги по Выравниванию земельного участка.

Погода в Калининграде - сегодня

Время (UTC), дата Ветер
(°,м/с) 
Видим.   Явления Облачность Т
(°С)
Тd
(°С)
f(%) Тe
(°С)
Pmin
(гПа)
dP
(гПа)
Po
(мм)
O2
(г/м3)
Тmin Tmax R s Состояние
почвы
09 18.07.17 260 (З) 2-7{07}  10 км    8/6 600 м средняя 
[Cu Sc|Ac trans]
+18.2 +11.1 63 +21  1019.6  0.4  763  286           
12 18.07.17 270 (З) 3-7{09}  10 км    8/6 600 м средняя 
[Cu Sc|Ac trans]
+19.1 +10.6 58 +22  1019.9  0.3  763  285           
15 18.07.17 290 (З) 2-6{08}  10 км    10/5 600 м средняя 
[Sc|Ac As]
+18.5 +11 62 +21  1019.8  763  286           
18 18.07.17 300 (СЗ) 1-4{06}  10 км    10/8 600 м средняя 
[Sc|Ac As]
+16.8 +11.8 72 +21  1019.9  763  287    +20.5       
21 18.07.17 тихо () -0{06}  10 км    3/3 600 м 
[Sc]
+13.6 +11.5 87 +16  1019.9  763  291           
00 19.07.17 тихо () -0{02}  4000 м  местами туман поземный  ясно 
+11.5 +11 97 +14  1019.9  763  293           
03 19.07.17 150 (ЮВ) 1-1{01}  4000 м  местами туман поземный  1/1 600 м 
[Cu med, cong]
+9.9 +9.6 98 +11  1019.7  -0.3  763  295  +9.9         
06 19.07.17 240 (ЮЗ) 1-3{03}  10 км    4/4 600 м 
[Cu med, cong]
+17.9 +13.7 76 +25  1019.5  0.1  763  286  +9.9        сухая 
09 19.07.17 240 (ЮЗ) 1-4{04}  10 км    8/6 600 м средняя 
[Cu Sc|Ac trans]
+19.8 +12.1 61 +25  1019.6  763  284           
12 19.07.17 350 (С) 1-2{05}  10 км    8/8 600 м 
[Cu Sc]
+20.3 +11.3 56 +23  1018.9  -0.7  762  284           
15 19.07.17 010 (С) 1-3{04}  10 км    9/9 600 м 
[Cu Sc]
+19.3 +12.8 66 +26  1017.6  -1.2  761  284           
18 19.07.17 020 (С) 1-3{05}  10 км    8/5 600 м средняя 
[Cu Sc|Ac trans]
+17.1 +13.3 78 +25  1017.3  -0.3  761  286    +21.3       
21 19.07.17 тихо () -0{03}  4000 м  дымка  ясно 
+12.6 +11.8 95 +16  1016.8  -0.6  761  291           
00 20.07.17 тихо () -0{02}  4000 м  местами туман поземный  3/0 верхняя 
[Ci fib]
+10.8 +10.4 97 +12  1016.2  -0.6  760  293           
03 20.07.17 тихо () -0{01}  4000 м  местами туман поземный  4/0 верхняя 
[Ci fib]
+10.4 +10.2 99 +12  1015  -1.2  759  293  +10         
06 20.07.17 090 (В) 2-5{05}  10 км    5/0 верхняя 
[Ci fib]
+17.7 +13.4 76 +25  1015.1  0.1  759  285  +10        сухая 
09 20.07.17 100 (В) 2-7{07}  10 км    3/0 верхняя 
[Ci fib]
+21.3 +11.8 55 +25  1014.4  -0.7  759  281           
12 20.07.17 080 (В) 2-6{07}  10 км    3/1 1000 м верхняя 
[Cu hum|Ci fib]
+22.7 +10.6 46 +24  1013.7  -0.7  758  280           
15 20.07.17 060 (СВ) 3-6{07}  10 км    3/0 верхняя 
[Ci fib]
+22.8 +9.1 42 +23  1013.1  -0.6  758  280           
18 20.07.17 050 (СВ) 2-4{07}  10 км    3/0 верхняя 
[Ci fib]
+19.9 +11.7 59 +24  1012.5  -0.5  758  282    +23.9       
21 20.07.17 080 (В) 1-1{05}  10 км    6/0 верхняя 
[Ci fib]
+14.7 +9.3 70 +16  1014.1  1.5  759  288           
00 21.07.17 060 (СВ) 1-2{03}  10 км    6/0 верхняя 
[Ci fib]
+11.4 +9.1 86 +13  1014.3  0.2  759  292           
03 21.07.17 080 (В) 1-1{02}  10 км    8/0 верхняя 
[Cs]
+12.1 +9.3 83 +13  1014  -0.3  759  291  +10.7         
06 21.07.17 080 (В) 1-2{03}  10 км  слаб. дождь  10/10 300 м 
[Frnb|Ns]
+14.6 +10.9 78 +18  1014.9  0.9  759  288  +10.7    0.0    сухая 
09 21.07.17 100 (В) 2-4{04}  10 км  {дождь}  10/10 300 м 
[Frnb|Ns]
+16.3 +11.4 73 +20  1015.6  0.7  760  287           
Время (UTC), дата Ветер
(°,м/с) 
Видим.   Явления Облачность Т
(°С)
Тd
(°С)
f(%) Тe
(°С)
Pmin
(гПа)
dP
(гПа)
Po
(мм)
O2
(г/м3)
Тmin Tmax R s Состояние
почвы

Для получения пояснительной информации подведите курсор к названию столбца.

ПОГОДА в Калининграде - архив

Всё, что Вы хотите узнать о погоде в Калининграде - удобно и подробно!

Выберите нужную дату (начиная с 1 января 2015* года) и нажмите кнопку "Найти".
Будут отображены архивные сводки погоды по пункту Калининград, начиная с указанной даты.


Отображать данные в формате CSV (для использования в таблицах Excel)


Внимание! Наш архив погоды предназначен исключительно для личного некоммерческого использования в познавательных целях. Если Вам необходимы официальные справки о состоянии погоды (для производственных, юридических, коммерческих и т.п. целей), обращайтесь в органы Росгидромета.

*Примечание: данная дата относится к архиву по метеостанциям СССР (Россия, СНГ, Балтия).
Архив по метеостанциям Зарубежной Европы и Азии (кроме Китая) хранится 10 дней, по другим регионам земного шара (Китай, Африка, Америка, Австралия, Океания) - 1 день.

Калининград - район местоположения метеостанции


Название, широта, долгота, высота метеостанции:
Калининград (город) 54.7°ш. 20.6°д. 21 м над ур. моря [Российская Федерация]

Дополнительная информация

В oтличие oт бoльшинства пoгoдных сайтoв мы публикуем пoдрoбную метеoинфoрмацию в детальнoм прoфессиoнальнoм фoрмате.

Характеристики температуры и влажнoсти вoздуха измеряются на высoте 2 м в тени вдали oт зданий и деревьев.
Скoрoсть ветра измеряется на высoте 10 м (на урoвне рoста челoвека скoрoсть ветра ниже в 1.5-2 раза). Если метеoстанция нахoдится в гoрoде или в лесу, тo скoрoсть ветра занижена на 2-4 м/с пo сравнению с oткрытым местoм. Скoрoсть ветра над акватoриями крупных рек и oзёр, а также на вершинах хoлмoв на 2-5 м/с выше, чем в oбычных услoвиях.
Атмoсфернoе давление в разных тoчках местнoсти мoжет значительнo oтличаться oт давления на метеoстанции, в зависимoсти oт услoвий рельефа (при пoдъёме на 10 м давление пoнижается примернo на 1 мм рт.ст.).